{"data":{"norad_id":55499,"intl_designator":"2023-015BC","name":"STARLINK-5366","alt_names":[],"object_type":"PAYLOAD","status":"ACTIVE","operator":null,"country":"US","launch_date":"2023-02-02","launch_site_code":"AFETR","launch_vehicle":null,"mission":null,"orbit_class":"UNKNOWN","rcs_meters":null,"size_class":null,"mass_kg":null,"dimensions":null,"purposes":["comms"],"wikipedia_slug":null,"has_3d_model":false,"image_url":null,"decayed_at":null,"tle_current":{"epoch":"2026-05-25T00:37:01.331040Z","epoch_age_seconds":83306,"freshness":"FRESH","line1":"1 55499U 23015BC  26145.02570985  .00004366  00000+0  16803-3 0  9996","line2":"2 55499  42.9999 268.2935 0001525 278.9784  81.0895 15.27588481183023","mean_motion":15.27588481,"eccentricity":0.0001525,"inclination_deg":42.9999,"raan_deg":268.2935,"arg_perigee_deg":278.9784,"mean_anomaly_deg":81.0895,"bstar":0.00016803,"rev_number":18302,"period_min":94.26622535523,"perigee_km":481.97737398522,"apogee_km":484.07002799902,"semimajor_km":6861.1607009921,"source":"CELESTRAK","updated_at":"2026-05-25T13:38:17.832501Z"}}}